DW3464 Weather Reports


time (UTC)temp
C
wind
direction
speed
KPH
gust
KPH
rain 1hr
cm
rain 24hr
cm
rain mn
cm
humidity
%
barometer
mb
20260504081526 2 117 0.0 4.8 0.00 0.00 0.00 81 1005.3
20260504050009 1 96 0.0 3.2 0.00 0.00 0.00 88 1006.1
20260504044514 1 96 0.0 3.2 0.00 0.00 0.00 86 1006.1
20260504043004 1 77 0.0 1.6 0.00 0.00 0.00 86 1006.2
20260504041501 2 285 0.0 0.0 0.00 0.00 0.00 85 1006.2
20260504034601 2 285 0.0 0.0 0.00 0.00 0.00 83 1006.3
20260504033100 3 285 0.0 0.0 0.00 0.00 0.00 80 1006.3
20260504031604 3 285 0.0 0.0 0.00 0.00 0.00 80 1006.4
20260504030057 3 285 0.0 0.0 0.00 0.00 0.00 82 1006.4
20260504024558 3 285 0.0 0.0 0.00 0.00 0.00 83 1006.4
20260504023058 3 285 0.0 0.0 0.00 0.00 0.00 81 1006.4
20260504021556 3 285 0.0 0.0 0.00 0.00 0.00 79 1006.6
20260504020055 3 285 0.0 0.0 0.00 0.00 0.00 78 1006.5
20260504014601 3 285 0.0 0.0 0.00 0.00 0.00 80 1006.6
20260504013105 4 285 0.0 1.6 0.00 0.00 0.00 79 1006.7
20260504011554 5 285 0.0 0.0 0.00 0.00 0.00 78 1006.6
20260504010112 5 285 0.0 0.0 0.00 0.00 0.00 75 1006.6
20260504004553 5 285 0.0 0.0 0.00 0.00 0.00 74 1006.4
20260504003052 6 285 0.0 0.0 0.00 0.00 0.00 71 1006.3
20260504001600 6 285 0.0 1.6 0.00 0.00 0.00 68 1006.2
20260504000055 7 285 0.0 0.0 0.00 0.00 0.00 65 1006.2
20260503234551 7 285 0.0 0.0 0.00 0.00 0.00 61 1006.3
20260503233059 8 285 0.0 0.0 0.00 0.00 0.00 57 1006.2
20260503231549 8 285 0.0 1.6 0.00 0.00 0.00 54 1006.2
20260503230049 9 252 0.0 1.6 0.00 0.00 0.00 58 1006.3
20260503224547 9 256 0.0 6.4 0.00 0.00 0.00 54 1006.4
20260503223047 9 299 0.0 9.7 0.00 0.00 0.00 55 1006.4
20260503221556 10 279 0.0 6.4 0.00 0.00 0.00 52 1006.4
20260503220057 11 250 3.2 11.3 0.00 0.00 0.00 48 1006.4
20260503214544 11 213 1.6 11.3 0.00 0.08 0.00 51 1006.4
20260503213043 10 300 0.0 8.0 0.00 0.08 0.00 53 1006.5
20260503211542 9 266 0.0 4.8 0.00 0.08 0.00 53 1006.6
20260503210052 10 305 0.0 11.3 0.00 0.08 0.00 54 1006.5
20260503204557 10 246 1.6 6.4 0.00 0.08 0.00 54 1006.5
20260503203040 10 261 1.6 8.0 0.00 0.08 0.00 52 1006.6
20260503201539 10 292 1.6 6.4 0.00 0.08 0.00 55 1006.6
20260503200044 8 258 1.6 12.9 0.00 0.08 0.00 57 1006.8
20260503194537 8 350 0.0 12.9 0.00 0.08 0.00 57 1006.9
20260503193034 8 277 3.2 9.7 0.00 0.08 0.00 57 1007.1
20260503191632 8 285 0.0 11.3 0.00 0.08 0.00 59 1007.2
20260503190042 8 290 1.6 11.3 0.00 0.08 0.00 58 1007.3
20260503184531 8 274 0.0 4.8 0.00 0.08 0.00 58 1007.5
20260503183028 8 253 4.8 12.9 0.00 0.08 0.00 56 1007.6
20260503181527 8 214 1.6 12.9 0.00 0.08 0.00 56 1007.6
20260503180027 9 325 0.0 4.8 0.00 0.08 0.00 57 1007.6
20260503174524 9 259 1.6 11.3 0.00 0.08 0.00 55 1007.7
20260503173024 9 355 3.2 14.5 0.00 0.08 0.00 57 1007.8
20260503171522 8 282 3.2 12.9 0.00 0.08 0.00 57 1008.1